TimePST,TemperatureF,Dew PointF,Humidity,Sea Level PressureIn,VisibilityMPH,Wind Direction,Wind SpeedMPH,Gust SpeedMPH,PrecipitationIn,Events,Conditions,WindDirDegrees,DateUTC
12:56 AM,51.1,39.9,66,29.81,10.0,SSW,18.4,-,N/A,,Clear,200,2012-12-18 08:56:00
1:56 AM,52.0,37.9,59,29.83,10.0,SSW,15.0,-,N/A,,Partly Cloudy,210,2012-12-18 09:56:00
2:56 AM,50.0,39.0,66,29.79,10.0,SSW,12.7,-,N/A,,Clear,200,2012-12-18 10:56:00
3:56 AM,48.9,37.0,64,29.77,10.0,South,15.0,-,N/A,,Clear,190,2012-12-18 11:56:00
4:56 AM,50.0,39.9,68,29.76,10.0,South,12.7,-,N/A,,Clear,190,2012-12-18 12:56:00
5:56 AM,48.9,39.9,71,29.74,10.0,SSW,13.8,-,N/A,,Mostly Cloudy,200,2012-12-18 13:56:00
6:56 AM,48.9,37.0,64,29.74,10.0,South,18.4,-,N/A,,Mostly Cloudy,190,2012-12-18 14:56:00
7:56 AM,51.1,35.1,54,29.75,10.0,South,18.4,-,N/A,,Mostly Cloudy,190,2012-12-18 15:56:00
8:56 AM,54.0,30.9,41,29.76,10.0,SW,17.3,25.3,N/A,,Mostly Cloudy,220,2012-12-18 16:56:00
9:56 AM,54.0,28.0,37,29.77,10.0,West,17.3,-,N/A,,Mostly Cloudy,280,2012-12-18 17:56:00
10:56 AM,55.0,25.0,31,29.76,10.0,WSW,20.7,27.6,N/A,,Mostly Cloudy,240,2012-12-18 18:56:00
11:56 AM,53.1,23.0,31,29.73,10.0,SW,27.6,36.8,N/A,,Scattered Clouds,230,2012-12-18 19:56:00
12:56 PM,52.0,21.9,31,29.69,10.0,WSW,28.8,39.1,N/A,,Partly Cloudy,250,2012-12-18 20:56:00
1:56 PM,51.1,19.0,28,29.70,10.0,SW,20.7,34.5,N/A,,Partly Cloudy,220,2012-12-18 21:56:00
2:56 PM,48.9,19.9,32,29.67,10.0,SW,33.4,44.9,N/A,,Partly Cloudy,220,2012-12-18 22:56:00
3:56 PM,46.0,21.9,39,29.69,10.0,SSW,28.8,34.5,N/A,,Partly Cloudy,210,2012-12-18 23:56:00
4:56 PM,46.0,18.0,33,29.69,10.0,West,24.2,34.5,N/A,,Partly Cloudy,270,2012-12-19 00:56:00
5:56 PM,45.0,15.1,30,29.71,10.0,West,28.8,38.0,N/A,,Clear,280,2012-12-19 01:56:00
6:56 PM,44.1,14.0,30,29.77,10.0,West,12.7,26.5,N/A,,Clear,270,2012-12-19 02:56:00
7:56 PM,43.0,12.0,28,29.81,10.0,WNW,16.1,28.8,N/A,,Clear,290,2012-12-19 03:56:00
8:56 PM,41.0,8.1,26,29.85,10.0,WNW,12.7,-,N/A,,Partly Cloudy,290,2012-12-19 04:56:00
9:56 PM,41.0,6.1,24,29.90,10.0,WNW,10.4,20.7,N/A,,Partly Cloudy,290,2012-12-19 05:56:00
10:56 PM,39.9,7.0,26,29.95,10.0,NNW,11.5,-,N/A,,Clear,330,2012-12-19 06:56:00
11:56 PM,37.9,10.0,32,29.98,10.0,WNW,10.4,-,N/A,,Clear,290,2012-12-19 07:56:00